Overview Statistics Trail Chart Weather Telemetry Raw packets
 

This is the latest recevied weather packets stored in our database for station/object SV7GBF-2. If no packets are shown the sender has not sent any weather packets the latest 10 day(s).

<< 21 22 23 24 25 26 27 >>
Time Temp. Humidity Pressure Rain* Wind** Luminosity Snow
1788252245 27.22° C 44% 1016 hPa - - - -
1788251643 27.22° C 45% 1016 hPa - - - -
1788251044 27.22° C 47% 1016 hPa - - - -
1788250444 26.67° C 45% 1016 hPa - - - -
1788249863 26.67° C 47% 1016 hPa - - - -
1788249244 26.67° C 48% 1016 hPa - - - -
1788248644 26.67° C 49% 1016 hPa - - - -
1788248044 26.67° C 51% 1016 hPa - - - -
1788247444 26.67° C 50% 1016 hPa - - - -
1788246844 26.11° C 50% 1016 hPa - - - -
1788246245 26.11° C 49% 1015 hPa - - - -
1788245644 26.11° C 44% 1015 hPa - - - -
1788245045 25.56° C 44% 1015 hPa - - - -
1788244443 25.56° C 46% 1015 hPa - - - -
1788243843 25° C 49% 1015 hPa - - - -
1788242043 23.89° C 46% 1015 hPa - - - -
1788241443 23.33° C 46% 1015 hPa - - - -
1788240244 22.78° C 46% 1015 hPa - - - -
1788239644 22.22° C 46% 1015 hPa - - - -
1788239043 22.22° C 45% 1015 hPa - - - -
1788238444 21.67° C 44% 1015 hPa - - - -
1788237844 21.67° C 43% 1015 hPa - - - -
1788237243 22.22° C 43% 1015 hPa - - - -
1788236043 21.67° C 42% 1015 hPa - - - -
1788235444 21.67° C 43% 1015 hPa - - - -

* Rain since midnight (hover to see other rain measurements)
** Current wind speed in m/s (hover to see current wind gust speed)